Location: Antelope Hills Observatory
(39.6967°N, 104.4114°W)
Time: 13:27:24
(UTC-07:00)

Tiangong 2 - Visible Passes

Search period start: 16 November 2018 00:00
Search period end: 26 November 2018 00:00
Orbit: 382 x 393 km, 42.8° (Epoch: 16 November)

Date Brightness Start Highest point End Pass type
(mag) Time Alt. Az. Time Alt. Az. Time Alt. Az.
23 Nov 4.2 05:30:26 10° S 05:32:00 13° SE 05:33:34 10° ESE visible
24 Nov 2.4 06:06:50 10° SW 06:09:50 40° SSE 06:12:52 10° E visible
25 Nov 3.3 05:09:38 15° SSW 05:11:21 23° SSE 05:13:59 10° E visible
